Location: Barrett Brook
(44.3123°N, 71.7154°W)
Time: 03:12:25
(UTC+00:00)

Envisat - Pass Details

Date: 16 October 2024
Orbit: 762 x 763 km, 98.3° (Epoch: 04 November)

Event Time Altitude Azimuth Distance (km) Brightness Sun altitude
Rises 07:54:06 0° 14° (NNE) 3,236 6.7 -34.1°
Reaches altitude 10° 07:56:25 10° 15° (NNE) 2,305 5.9 -33.7°
Enters shadow 07:58:48 28° 19° (NNE) 1,396 4.6 -33.3°
